Time,TemperatureF,DewpointF,PressureIn,WindDirection,WindDirectionDegrees,WindSpeedMPH,WindSpeedGustMPH,Humidity,HourlyPrecipIn,Conditions,Clouds,dailyrainin,SoftwareType,DateUTC
2013-01-28 00:02:00,36.0,36.0,-100.00,East,95,7.0,9.0,99,0.00,,,-99.99,,2013-01-28 06:02:00,
2013-01-28 00:11:00,36.0,36.0,-100.00,SSE,160,4.0,6.0,99,0.00,,,-99.99,,2013-01-28 06:11:00,
2013-01-28 00:21:00,36.0,36.0,-100.00,SSE,160,4.0,6.0,99,0.00,,,-99.99,,2013-01-28 06:21:00,
2013-01-28 00:32:00,36.0,36.0,-100.00,SSE,150,4.0,6.0,99,0.00,,,-99.99,,2013-01-28 06:32:00,
2013-01-28 00:42:00,36.0,36.0,-100.00,SSE,150,4.0,6.0,99,0.00,,,-99.99,,2013-01-28 06:42:00,
2013-01-28 00:52:00,36.0,36.0,-100.00,SE,145,3.0,6.0,99,0.00,,,-99.99,,2013-01-28 06:52:00,
2013-01-28 01:02:00,36.0,36.0,-100.00,SE,145,3.0,6.0,99,0.00,,,-99.99,,2013-01-28 07:02:00,
2013-01-28 01:11:00,36.0,36.0,-100.00,SE,135,3.0,5.0,99,0.00,,,-99.99,,2013-01-28 07:11:00,
2013-01-28 01:21:00,36.0,36.0,-100.00,SE,140,3.0,5.0,99,0.00,,,-99.99,,2013-01-28 07:21:00,
2013-01-28 01:32:00,36.0,36.0,-100.00,SE,145,4.0,6.0,99,0.00,,,-99.99,,2013-01-28 07:32:00,
2013-01-28 01:41:00,36.0,36.0,-100.00,SE,145,4.0,6.0,99,0.00,,,-99.99,,2013-01-28 07:41:00,
2013-01-28 01:51:00,36.0,36.0,-100.00,East,85,4.0,7.0,99,0.00,,,-99.99,,2013-01-28 07:51:00,
2013-01-28 02:01:00,36.0,36.0,-100.00,East,85,4.0,7.0,99,0.00,,,-99.99,,2013-01-28 08:01:00,
2013-01-28 02:11:00,36.0,36.0,-100.00,SSE,150,4.0,6.0,99,0.00,,,-99.99,,2013-01-28 08:11:00,
2013-01-28 02:21:00,36.0,36.0,-100.00,SSE,155,3.0,4.0,99,0.00,,,-99.99,,2013-01-28 08:21:00,
2013-01-28 02:32:00,36.0,36.0,-100.00,SE,135,4.0,5.0,99,0.00,,,-99.99,,2013-01-28 08:32:00,
2013-01-28 02:42:00,36.0,36.0,-100.00,SE,135,4.0,5.0,99,0.00,,,-99.99,,2013-01-28 08:42:00,
2013-01-28 02:52:00,37.0,37.0,-100.00,SSE,150,5.0,7.0,99,0.00,,,-99.99,,2013-01-28 08:52:00,
2013-01-28 03:02:00,37.0,37.0,-100.00,SSE,150,5.0,7.0,99,0.00,,,-99.99,,2013-01-28 09:02:00,
2013-01-28 03:11:00,37.0,37.0,-100.00,SSE,155,6.0,7.0,99,0.00,,,-99.99,,2013-01-28 09:11:00,
2013-01-28 03:21:00,37.0,37.0,-100.00,SSE,155,5.0,8.0,99,0.00,,,-99.99,,2013-01-28 09:21:00,
2013-01-28 03:32:00,38.0,38.0,-100.00,SSE,160,6.0,11.0,99,0.00,,,-99.99,,2013-01-28 09:32:00,
2013-01-28 03:42:00,38.0,38.0,-100.00,SSE,160,7.0,11.0,99,0.00,,,-99.99,,2013-01-28 09:42:00,
2013-01-28 03:51:00,38.0,38.0,-100.00,SSE,155,5.0,9.0,99,0.00,,,-99.99,,2013-01-28 09:51:00,
2013-01-28 04:02:00,38.0,38.0,-100.00,SSE,155,5.0,9.0,99,0.00,,,-99.99,,2013-01-28 10:02:00,
2013-01-28 04:11:00,37.0,37.0,-100.00,ESE,120,4.0,9.0,99,0.00,,,-99.99,,2013-01-28 10:11:00,
2013-01-28 04:21:00,37.0,37.0,-100.00,South,170,4.0,7.0,99,0.00,,,-99.99,,2013-01-28 10:21:00,
2013-01-28 04:32:00,37.0,37.0,-100.00,South,185,4.0,4.0,99,0.00,,,-99.99,,2013-01-28 10:32:00,
2013-01-28 04:41:00,37.0,37.0,-100.00,South,185,4.0,4.0,99,0.00,,,-99.99,,2013-01-28 10:41:00,
2013-01-28 04:51:00,37.0,37.0,-100.00,South,190,3.0,4.0,99,0.00,,,-99.99,,2013-01-28 10:51:00,
2013-01-28 05:02:00,37.0,37.0,-100.00,South,190,3.0,4.0,99,0.00,,,-99.99,,2013-01-28 11:02:00,
2013-01-28 05:11:00,37.0,37.0,-100.00,South,190,4.0,4.0,99,0.00,,,-99.99,,2013-01-28 11:11:00,
2013-01-28 05:22:00,37.0,37.0,-100.00,South,190,4.0,4.0,99,0.00,,,-99.99,,2013-01-28 11:22:00,
2013-01-28 05:42:00,36.0,36.0,-100.00,South,190,4.0,6.0,99,0.00,,,-99.99,,2013-01-28 11:42:00,
2013-01-28 05:52:00,36.0,36.0,-100.00,South,190,2.0,5.0,99,0.00,,,-99.99,,2013-01-28 11:52:00,
2013-01-28 06:03:00,36.0,36.0,-100.00,South,190,2.0,5.0,99,0.00,,,-99.99,,2013-01-28 12:03:00,
2013-01-28 06:11:00,36.0,36.0,-100.00,South,170,2.0,4.0,99,0.00,,,-99.99,,2013-01-28 12:11:00,
2013-01-28 06:23:00,36.0,36.0,-100.00,South,190,3.0,4.0,99,0.00,,,-99.99,,2013-01-28 12:23:00,
2013-01-28 06:33:00,36.0,36.0,-100.00,South,185,4.0,7.0,99,0.00,,,-99.99,,2013-01-28 12:33:00,
2013-01-28 06:42:00,35.0,35.0,-100.00,SSW,195,2.0,4.0,99,0.00,,,-99.99,,2013-01-28 12:42:00,
2013-01-28 06:52:00,35.0,35.0,-100.00,SSW,205,2.0,3.0,99,0.00,,,-99.99,,2013-01-28 12:52:00,
2013-01-28 07:02:00,35.0,35.0,-100.00,SSW,205,2.0,3.0,99,0.00,,,-99.99,,2013-01-28 13:02:00,
2013-01-28 07:12:00,35.0,35.0,-100.00,NNE,25,1.0,4.0,99,0.00,,,-99.99,,2013-01-28 13:12:00,
2013-01-28 07:23:00,35.0,35.0,-100.00,NNE,25,0.0,2.0,99,0.00,,,-99.99,,2013-01-28 13:23:00,
2013-01-28 07:33:00,35.0,35.0,-100.00,NNE,25,1.0,2.0,99,0.00,,,-99.99,,2013-01-28 13:33:00,
2013-01-28 07:42:00,35.0,35.0,-100.00,ESE,105,0.0,3.0,99,0.00,,,-99.99,,2013-01-28 13:42:00,
2013-01-28 07:52:00,35.0,35.0,-100.00,ESE,110,0.0,4.0,99,0.00,,,-99.99,,2013-01-28 13:52:00,
2013-01-28 08:03:00,35.0,35.0,-100.00,ESE,110,0.0,4.0,99,0.00,,,-99.99,,2013-01-28 14:03:00,
2013-01-28 08:12:00,35.0,35.0,-100.00,ENE,70,1.0,2.0,99,0.00,,,-99.99,,2013-01-28 14:12:00,
2013-01-28 08:22:00,35.0,35.0,-100.00,East,90,2.0,6.0,99,0.00,,,-99.99,,2013-01-28 14:22:00,
2013-01-28 08:33:00,35.0,35.0,-100.00,East,85,1.0,2.0,99,0.00,,,-99.99,,2013-01-28 14:33:00,
2013-01-28 08:42:00,36.0,36.0,-100.00,ENE,75,1.0,5.0,99,0.00,,,-99.99,,2013-01-28 14:42:00,
2013-01-28 08:52:00,36.0,36.0,-100.00,NE,45,2.0,4.0,99,0.00,,,-99.99,,2013-01-28 14:52:00,
2013-01-28 09:03:00,36.0,36.0,-100.00,NE,45,2.0,4.0,99,0.00,,,-99.99,,2013-01-28 15:03:00,
2013-01-28 09:12:00,36.0,36.0,-100.00,ENE,65,1.0,4.0,99,0.00,,,-99.99,,2013-01-28 15:12:00,
2013-01-28 09:23:00,36.0,36.0,-100.00,NE,55,4.0,5.0,99,0.00,,,-99.99,,2013-01-28 15:23:00,
2013-01-28 09:33:00,36.0,36.0,-100.00,ENE,65,2.0,4.0,99,0.00,,,-99.99,,2013-01-28 15:33:00,
2013-01-28 09:43:00,36.0,36.0,-100.00,East,95,2.0,5.0,99,0.00,,,-99.99,,2013-01-28 15:43:00,
2013-01-28 09:52:00,36.0,36.0,-100.00,NNE,30,4.0,5.0,99,0.00,,,-99.99,,2013-01-28 15:52:00,
2013-01-28 10:04:00,36.0,36.0,-100.00,NNE,30,4.0,5.0,99,0.00,,,-99.99,,2013-01-28 16:04:00,
2013-01-28 10:12:00,36.0,36.0,-100.00,East,85,2.0,4.0,99,0.00,,,-99.99,,2013-01-28 16:12:00,
2013-01-28 10:22:00,36.0,36.0,-100.00,NE,55,4.0,6.0,99,0.00,,,-99.99,,2013-01-28 16:22:00,
2013-01-28 10:32:00,36.0,36.0,-100.00,NE,35,3.0,6.0,99,0.00,,,-99.99,,2013-01-28 16:32:00,
2013-01-28 10:41:00,37.0,37.0,-100.00,ENE,60,4.0,7.0,99,0.00,,,-99.99,,2013-01-28 16:41:00,
2013-01-28 10:42:00,36.0,36.0,-100.00,NNE,30,4.0,6.0,99,0.00,,,-99.99,,2013-01-28 16:42:00,
2013-01-28 10:52:00,37.0,37.0,-100.00,ENE,60,4.0,7.0,99,0.00,,,-99.99,,2013-01-28 16:52:00,
2013-01-28 11:02:00,37.0,37.0,-100.00,ENE,60,4.0,7.0,99,0.00,,,-99.99,,2013-01-28 17:02:00,
2013-01-28 11:12:00,37.0,37.0,-100.00,ENE,60,4.0,7.0,99,0.00,,,-99.99,,2013-01-28 17:12:00,
2013-01-28 11:22:00,37.0,37.0,-100.00,ENE,60,4.0,7.0,99,0.00,,,-99.99,,2013-01-28 17:22:00,
2013-01-28 11:32:00,37.0,37.0,-100.00,ENE,60,4.0,7.0,99,0.00,,,-99.99,,2013-01-28 17:32:00,
2013-01-28 13:43:00,39.0,39.0,-100.00,NE,55,6.0,10.0,99,0.00,,,-99.99,,2013-01-28 19:43:00,
2013-01-28 13:52:00,39.0,39.0,-100.00,ENE,65,8.0,11.0,99,0.00,,,-99.99,,2013-01-28 19:52:00,
2013-01-28 14:02:00,39.0,39.0,-100.00,ENE,65,8.0,11.0,99,0.00,,,-99.99,,2013-01-28 20:02:00,
2013-01-28 14:12:00,39.0,39.0,-100.00,ENE,70,6.0,12.0,99,0.00,,,-99.99,,2013-01-28 20:12:00,
2013-01-28 14:22:00,39.0,39.0,-100.00,ENE,65,9.0,10.0,99,0.00,,,-99.99,,2013-01-28 20:22:00,
2013-01-28 14:33:00,39.0,39.0,-100.00,NE,55,7.0,11.0,99,0.00,,,-99.99,,2013-01-28 20:33:00,
2013-01-28 14:42:00,39.0,39.0,-100.00,NE,55,7.0,11.0,99,0.00,,,-99.99,,2013-01-28 20:42:00,
2013-01-28 14:52:00,39.0,39.0,-100.00,NE,55,6.0,11.0,99,0.00,,,-99.99,,2013-01-28 20:52:00,
2013-01-28 15:03:00,39.0,39.0,-100.00,NE,55,6.0,11.0,99,0.00,,,-99.99,,2013-01-28 21:03:00,
2013-01-28 15:11:00,39.0,39.0,-100.00,NE,55,7.0,11.0,99,0.00,,,-99.99,,2013-01-28 21:11:00,
2013-01-28 15:22:00,39.0,39.0,-100.00,NE,55,8.0,12.0,99,0.00,,,-99.99,,2013-01-28 21:22:00,
2013-01-28 15:33:00,39.0,39.0,-100.00,ENE,60,8.0,11.0,99,0.00,,,-99.99,,2013-01-28 21:33:00,
2013-01-28 15:42:00,39.0,39.0,-100.00,ENE,60,8.0,11.0,99,0.00,,,-99.99,,2013-01-28 21:42:00,
2013-01-28 15:52:00,39.0,39.0,-100.00,ENE,60,8.0,11.0,99,0.00,,,-99.99,,2013-01-28 21:52:00,
2013-01-28 16:02:00,39.0,39.0,-100.00,ENE,60,8.0,11.0,99,0.00,,,-99.99,,2013-01-28 22:02:00,
2013-01-28 16:11:00,39.0,39.0,-100.00,ENE,60,8.0,11.0,99,0.00,,,-99.99,,2013-01-28 22:11:00,
2013-01-28 16:22:00,39.0,39.0,-100.00,NE,55,9.0,11.0,99,0.00,,,-99.99,,2013-01-28 22:22:00,
2013-01-28 16:32:00,38.0,38.0,-100.00,ENE,60,9.0,13.0,99,0.00,,,-99.99,,2013-01-28 22:32:00,
2013-01-28 16:42:00,38.0,38.0,-100.00,ENE,60,9.0,13.0,99,0.00,,,-99.99,,2013-01-28 22:42:00,
2013-01-28 16:52:00,38.0,38.0,-100.00,ENE,65,10.0,15.0,99,0.00,,,-99.99,,2013-01-28 22:52:00,
2013-01-28 17:02:00,38.0,38.0,-100.00,ENE,65,10.0,15.0,99,0.00,,,-99.99,,2013-01-28 23:02:00,
2013-01-28 17:11:00,39.0,38.0,-100.00,ENE,65,9.0,12.0,99,0.00,,,-99.99,,2013-01-28 23:11:00,
2013-01-28 17:22:00,39.0,38.0,-100.00,ENE,60,7.0,12.0,99,0.00,,,-99.99,,2013-01-28 23:22:00,
2013-01-28 17:32:00,39.0,38.0,-100.00,ENE,60,9.0,11.0,99,0.00,,,-99.99,,2013-01-28 23:32:00,
2013-01-28 17:42:00,39.0,38.0,-100.00,ENE,60,9.0,11.0,99,0.00,,,-99.99,,2013-01-28 23:42:00,
2013-01-28 17:52:00,38.0,38.0,-100.00,ENE,60,9.0,12.0,99,0.00,,,-99.99,,2013-01-28 23:52:00,
2013-01-28 18:02:00,38.0,38.0,-100.00,ENE,60,9.0,12.0,99,0.00,,,-99.99,,2013-01-29 00:02:00,
2013-01-28 18:12:00,39.0,39.0,-100.00,ENE,65,9.0,13.0,99,0.00,,,-99.99,,2013-01-29 00:12:00,
2013-01-28 18:22:00,39.0,39.0,-100.00,ENE,65,9.0,12.0,99,0.00,,,-99.99,,2013-01-29 00:22:00,
2013-01-28 18:32:00,39.0,39.0,-100.00,ENE,70,7.0,12.0,99,0.00,,,-99.99,,2013-01-29 00:32:00,
2013-01-28 18:42:00,39.0,39.0,-100.00,ENE,70,7.0,12.0,99,0.00,,,-99.99,,2013-01-29 00:42:00,
2013-01-28 18:52:00,40.0,40.0,-100.00,ENE,65,9.0,13.0,99,0.00,,,-99.99,,2013-01-29 00:52:00,
2013-01-28 19:02:00,40.0,40.0,-100.00,ENE,65,9.0,13.0,99,0.00,,,-99.99,,2013-01-29 01:02:00,
2013-01-28 19:11:00,40.0,40.0,-100.00,ENE,65,9.0,14.0,99,0.00,,,-99.99,,2013-01-29 01:11:00,
2013-01-28 19:22:00,40.0,40.0,-100.00,ENE,70,7.0,14.0,99,0.00,,,-99.99,,2013-01-29 01:22:00,
2013-01-28 19:32:00,40.0,40.0,-100.00,ENE,70,7.0,13.0,99,0.00,,,-99.99,,2013-01-29 01:32:00,
2013-01-28 19:42:00,41.0,41.0,-100.00,ENE,70,8.0,12.0,99,0.00,,,-99.99,,2013-01-29 01:42:00,
2013-01-28 19:52:00,41.0,41.0,-100.00,ENE,75,7.0,12.0,99,0.00,,,-99.99,,2013-01-29 01:52:00,
2013-01-28 20:02:00,41.0,41.0,-100.00,ENE,75,7.0,12.0,99,0.00,,,-99.99,,2013-01-29 02:02:00,
2013-01-28 20:12:00,41.0,41.0,-100.00,ENE,70,6.0,12.0,99,0.00,,,-99.99,,2013-01-29 02:12:00,
2013-01-28 20:21:00,41.0,41.0,-100.00,ENE,75,6.0,12.0,99,0.00,,,-99.99,,2013-01-29 02:21:00,
2013-01-28 20:33:00,42.0,42.0,-100.00,ENE,70,9.0,14.0,99,0.00,,,-99.99,,2013-01-29 02:33:00,
2013-01-28 20:41:00,42.0,42.0,-100.00,ENE,70,9.0,14.0,99,0.00,,,-99.99,,2013-01-29 02:41:00,
2013-01-28 20:52:00,42.0,42.0,-100.00,ENE,70,8.0,12.0,99,0.00,,,-99.99,,2013-01-29 02:52:00,
2013-01-28 21:03:00,42.0,42.0,-100.00,ENE,70,8.0,12.0,99,0.00,,,-99.99,,2013-01-29 03:03:00,
2013-01-28 21:11:00,42.0,42.0,-100.00,ENE,75,6.0,11.0,99,0.00,,,-99.99,,2013-01-29 03:11:00,
2013-01-28 21:21:00,42.0,42.0,-100.00,ENE,75,7.0,13.0,99,0.00,,,-99.99,,2013-01-29 03:21:00,
2013-01-28 21:32:00,42.0,42.0,-100.00,ENE,70,6.0,9.0,99,0.00,,,-99.99,,2013-01-29 03:32:00,
2013-01-28 21:42:00,42.0,42.0,-100.00,ENE,70,6.0,9.0,99,0.00,,,-99.99,,2013-01-29 03:42:00,
2013-01-28 21:52:00,43.0,43.0,-100.00,ENE,70,6.0,10.0,99,0.00,,,-99.99,,2013-01-29 03:52:00,
2013-01-28 22:02:00,43.0,43.0,-100.00,ENE,70,6.0,10.0,99,0.00,,,-99.99,,2013-01-29 04:02:00,
2013-01-28 22:11:00,43.0,43.0,-100.00,ENE,70,6.0,10.0,99,0.00,,,-99.99,,2013-01-29 04:11:00,
2013-01-28 22:21:00,43.0,43.0,-100.00,ENE,70,7.0,9.0,99,0.00,,,-99.99,,2013-01-29 04:21:00,
2013-01-28 22:32:00,44.0,44.0,-100.00,East,80,2.0,6.0,99,0.00,,,-99.99,,2013-01-29 04:32:00,
2013-01-28 22:41:00,44.0,44.0,-100.00,East,80,2.0,6.0,99,0.00,,,-99.99,,2013-01-29 04:41:00,
2013-01-28 22:51:00,44.0,44.0,-100.00,ESE,115,4.0,6.0,99,0.00,,,-99.99,,2013-01-29 04:51:00,
2013-01-28 23:03:00,44.0,44.0,-100.00,ESE,115,4.0,6.0,99,0.00,,,-99.99,,2013-01-29 05:03:00,
2013-01-28 23:12:00,49.0,49.0,-100.00,East,95,4.0,9.0,99,0.00,,,-99.99,,2013-01-29 05:12:00,
2013-01-28 23:21:00,50.0,50.0,-100.00,East,90,3.0,6.0,99,0.00,,,-99.99,,2013-01-29 05:21:00,
2013-01-28 23:32:00,51.0,51.0,-100.00,East,90,5.0,7.0,99,0.00,,,-99.99,,2013-01-29 05:32:00,
2013-01-28 23:42:00,51.0,51.0,-100.00,East,90,5.0,7.0,99,0.00,,,-99.99,,2013-01-29 05:42:00,
2013-01-28 23:52:00,53.0,53.0,-100.00,East,95,6.0,10.0,99,0.00,,,-99.99,,2013-01-29 05:52:00,